owner,sensor,date,latitude,longitude,vertical_datum,wind_speed,wind_to_direction,wind_speed_of_gust,qcFlag 
TCOON,ioos:station:TCOON:031:1,2013-12-01T00:00:00Z,28.4073,-96.7122,0.0,2.5,75.0,3.6,'11111222,11111222,11111222' 
TCOON,ioos:station:TCOON:031:1,2013-12-01T00:06:00Z,28.4073,-96.7122,0.0,2.3,73.0,3.7,'11111222,11111222,11111222' 
TCOON,ioos:station:TCOON:031:1,2013-12-01T00:12:00Z,28.4073,-96.7122,0.0,2.4,74.0,3.7,'11111222,11111222,11111222' 
TCOON,ioos:station:TCOON:031:1,2013-12-01T00:18:00Z,28.4073,-96.7122,0.0,2.4,72.0,4.0,'11111222,11111222,11111222' 
TCOON,ioos:station:TCOON:031:1,2013-12-01T00:24:00Z,28.4073,-96.7122,0.0,2.5,70.0,3.6,'11111222,11111222,11111222' 
TCOON,ioos:station:TCOON:031:1,2013-12-01T00:30:00Z,28.4073,-96.7122,0.0,2.4,69.0,3.5,'11111222,11111222,11111222' 
TCOON,ioos:station:TCOON:031:1,2013-12-01T00:36:00Z,28.4073,-96.7122,0.0,2.7,69.0,3.8,'11111222,11111222,11111222' 
TCOON,ioos:station:TCOON:031:1,2013-12-01T00:42:00Z,28.4073,-96.7122,0.0,1.8,73.0,3.5,'11111222,11111222,11111222' 
TCOON,ioos:station:TCOON:031:1,2013-12-01T00:48:00Z,28.4073,-96.7122,0.0,2.0,62.0,2.9,'11111222,11111222,11111222' 
TCOON,ioos:station:TCOON:031:1,2013-12-01T00:54:00Z,28.4073,-96.7122,0.0,1.9,62.0,2.9,'11111222,11111222,11111222' 
TCOON,ioos:station:TCOON:031:1,2013-12-01T01:00:00Z,28.4073,-96.7122,0.0,1.9,68.0,2.8,'11111222,11111222,11111222' 
TCOON,ioos:station:TCOON:031:1,2013-12-01T01:06:00Z,28.4073,-96.7122,0.0,1.6,69.0,2.3,'11111222,11111222,11111222' 
TCOON,ioos:station:TCOON:031:1,2013-12-01T01:12:00Z,28.4073,-96.7122,0.0,1.9,59.0,2.3,'11111222,11111222,11111222' 
TCOON,ioos:station:TCOON:031:1,2013-12-01T01:18:00Z,28.4073,-96.7122,0.0,1.7,57.0,2.4,'11111222,11111222,11111222' 
TCOON,ioos:station:TCOON:031:1,2013-12-01T01:24:00Z,28.4073,-96.7122,0.0,1.8,57.0,2.4,'11111222,11111222,11111222' 
TCOON,ioos:station:TCOON:031:1,2013-12-01T01:30:00Z,28.4073,-96.7122,0.0,1.6,66.0,2.3,'11111222,11111222,11111222' 
TCOON,ioos:station:TCOON:031:1,2013-12-01T01:36:00Z,28.4073,-96.7122,0.0,1.0,73.0,1.8,'11111222,11111222,11111222' 
TCOON,ioos:station:TCOON:031:1,2013-12-01T01:42:00Z,28.4073,-96.7122,0.0,1.7,77.0,2.3,'11111222,11111222,11111222' 
TCOON,ioos:station:TCOON:031:1,2013-12-01T01:48:00Z,28.4073,-96.7122,0.0,2.0,76.0,2.7,'11111222,11111222,11111222' 
TCOON,ioos:station:TCOON:031:1,2013-12-01T01:54:00Z,28.4073,-96.7122,0.0,2.2,78.0,3.0,'11111222,11111222,11111222' 
TCOON,ioos:station:TCOON:031:1,2013-12-01T02:00:00Z,28.4073,-96.7122,0.0,2.5,77.0,3.8,'11111222,11111222,11111222' 
TCOON,ioos:station:TCOON:031:1,2013-12-01T02:06:00Z,28.4073,-96.7122,0.0,2.1,77.0,3.4,'11111222,11111222,11111222' 
TCOON,ioos:station:TCOON:031:1,2013-12-01T02:12:00Z,28.4073,-96.7122,0.0,2.3,78.0,3.6,'11111222,11111222,11111222' 
TCOON,ioos:station:TCOON:031:1,2013-12-01T02:18:00Z,28.4073,-96.7122,0.0,2.3,76.0,3.6,'11111222,11111222,11111222' 
TCOON,ioos:station:TCOON:031:1,2013-12-01T02:24:00Z,28.4073,-96.7122,0.0,2.5,78.0,3.5,'11111222,11111222,11111222' 
TCOON,ioos:station:TCOON:031:1,2013-12-01T02:30:00Z,28.4073,-96.7122,0.0,2.1,78.0,3.4,'11111222,11111222,11111222' 
TCOON,ioos:station:TCOON:031:1,2013-12-01T02:36:00Z,28.4073,-96.7122,0.0,1.9,76.0,2.8,'11111222,11111222,11111222' 
TCOON,ioos:station:TCOON:031:1,2013-12-01T02:42:00Z,28.4073,-96.7122,0.0,2.2,71.0,3.0,'11111222,11111222,11111222' 
TCOON,ioos:station:TCOON:031:1,2013-12-01T02:48:00Z,28.4073,-96.7122,0.0,1.8,76.0,3.1,'11111222,11111222,11111222' 
TCOON,ioos:station:TCOON:031:1,2013-12-01T02:54:00Z,28.4073,-96.7122,0.0,2.1,73.0,3.1,'11111222,11111222,11111222' 
TCOON,ioos:station:TCOON:031:1,2013-12-01T03:00:00Z,28.4073,-96.7122,0.0,2.0,72.0,3.2,'11111222,11111222,11111222' 
TCOON,ioos:station:TCOON:031:1,2013-12-01T03:06:00Z,28.4073,-96.7122,0.0,2.1,69.0,3.0,'11111222,11111222,11111222' 
TCOON,ioos:station:TCOON:031:1,2013-12-01T03:12:00Z,28.4073,-96.7122,0.0,2.1,73.0,2.9,'11111222,11111222,11111222' 
TCOON,ioos:station:TCOON:031:1,2013-12-01T03:18:00Z,28.4073,-96.7122,0.0,1.9,78.0,2.9,'11111222,11111222,11111222' 
TCOON,ioos:station:TCOON:031:1,2013-12-01T03:24:00Z,28.4073,-96.7122,0.0,2.6,86.0,3.2,'11111222,11111222,11111222' 
TCOON,ioos:station:TCOON:031:1,2013-12-01T03:30:00Z,28.4073,-96.7122,0.0,2.4,85.0,3.4,'11111222,11111222,11111222' 
TCOON,ioos:station:TCOON:031:1,2013-12-01T03:36:00Z,28.4073,-96.7122,0.0,2.4,83.0,3.7,'11111222,11111222,11111222' 
TCOON,ioos:station:TCOON:031:1,2013-12-01T03:42:00Z,28.4073,-96.7122,0.0,2.6,83.0,3.5,'11111222,11111222,11111222' 
TCOON,ioos:station:TCOON:031:1,2013-12-01T03:48:00Z,28.4073,-96.7122,0.0,2.5,84.0,3.8,'11111222,11111222,11111222' 
TCOON,ioos:station:TCOON:031:1,2013-12-01T03:54:00Z,28.4073,-96.7122,0.0,2.2,84.0,3.9,'11111222,11111222,11111222' 
TCOON,ioos:station:TCOON:031:1,2013-12-01T04:00:00Z,28.4073,-96.7122,0.0,1.9,79.0,2.9,'11111222,11111222,11111222' 
TCOON,ioos:station:TCOON:031:1,2013-12-01T04:06:00Z,28.4073,-96.7122,0.0,1.9,79.0,2.7,'11111222,11111222,11111222' 
TCOON,ioos:station:TCOON:031:1,2013-12-01T04:12:00Z,28.4073,-96.7122,0.0,1.8,75.0,2.6,'11111222,11111222,11111222' 
TCOON,ioos:station:TCOON:031:1,2013-12-01T04:18:00Z,28.4073,-96.7122,0.0,2.0,78.0,2.7,'11111222,11111222,11111222' 
TCOON,ioos:station:TCOON:031:1,2013-12-01T04:24:00Z,28.4073,-96.7122,0.0,1.9,75.0,2.7,'11111222,11111222,11111222' 
TCOON,ioos:station:TCOON:031:1,2013-12-01T04:30:00Z,28.4073,-96.7122,0.0,2.1,81.0,2.9,'11111222,11111222,11111222' 
TCOON,ioos:station:TCOON:031:1,2013-12-01T04:36:00Z,28.4073,-96.7122,0.0,1.8,71.0,2.6,'11111222,11111222,11111222' 
TCOON,ioos:station:TCOON:031:1,2013-12-01T04:42:00Z,28.4073,-96.7122,0.0,1.5,41.0,2.5,'11111222,11111222,11111222' 
TCOON,ioos:station:TCOON:031:1,2013-12-01T04:48:00Z,28.4073,-96.7122,0.0,2.2,358.0,2.6,'11111222,11111222,11111222' 
TCOON,ioos:station:TCOON:031:1,2013-12-01T04:54:00Z,28.4073,-96.7122,0.0,1.8,11.0,2.6,'11111222,11111222,11111222' 
TCOON,ioos:station:TCOON:031:1,2013-12-01T05:00:00Z,28.4073,-96.7122,0.0,2.0,38.0,2.5,'11111222,11111222,11111222' 
TCOON,ioos:station:TCOON:031:1,2013-12-01T05:06:00Z,28.4073,-96.7122,0.0,1.4,44.0,2.5,'11111222,11111222,11111222' 
TCOON,ioos:station:TCOON:031:1,2013-12-01T05:12:00Z,28.4073,-96.7122,0.0,2.1,14.0,2.3,'11111222,11111222,11111222' 
TCOON,ioos:station:TCOON:031:1,2013-12-01T05:18:00Z,28.4073,-96.7122,0.0,1.8,7.0,2.3,'11111222,11111222,11111222' 
TCOON,ioos:station:TCOON:031:1,2013-12-01T05:24:00Z,28.4073,-96.7122,0.0,2.0,9.0,2.4,'11111222,11111222,11111222' 
TCOON,ioos:station:TCOON:031:1,2013-12-01T05:30:00Z,28.4073,-96.7122,0.0,2.0,9.0,2.4,'11111222,11111222,11111222' 
TCOON,ioos:station:TCOON:031:1,2013-12-01T05:36:00Z,28.4073,-96.7122,0.0,1.4,11.0,2.4,'11111222,11111222,11111222' 
TCOON,ioos:station:TCOON:031:1,2013-12-01T05:42:00Z,28.4073,-96.7122,0.0,1.6,9.0,2.1,'11111222,11111222,11111222' 
TCOON,ioos:station:TCOON:031:1,2013-12-01T05:48:00Z,28.4073,-96.7122,0.0,1.6,26.0,1.8,'11111222,11111222,11111222' 
TCOON,ioos:station:TCOON:031:1,2013-12-01T05:54:00Z,28.4073,-96.7122,0.0,1.8,49.0,2.3,'11111222,11111222,11111222' 
TCOON,ioos:station:TCOON:031:1,2013-12-01T06:00:00Z,28.4073,-96.7122,0.0,1.8,47.0,2.1,'11111222,11111222,11111222' 
TCOON,ioos:station:TCOON:031:1,2013-12-01T06:06:00Z,28.4073,-96.7122,0.0,2.1,53.0,2.5,'11111222,11111222,11111222' 
TCOON,ioos:station:TCOON:031:1,2013-12-01T06:12:00Z,28.4073,-96.7122,0.0,1.4,43.0,2.4,'11111222,11111222,11111222' 
TCOON,ioos:station:TCOON:031:1,2013-12-01T06:18:00Z,28.4073,-96.7122,0.0,1.2,56.0,1.8,'11111222,11111222,11111222' 
TCOON,ioos:station:TCOON:031:1,2013-12-01T06:24:00Z,28.4073,-96.7122,0.0,1.2,46.0,1.8,'11111222,11111222,11111222' 
TCOON,ioos:station:TCOON:031:1,2013-12-01T06:30:00Z,28.4073,-96.7122,0.0,1.0,51.0,1.6,'11111222,11111222,11111222' 
TCOON,ioos:station:TCOON:031:1,2013-12-01T06:36:00Z,28.4073,-96.7122,0.0,1.1,42.0,1.5,'11111222,11111222,11111222' 
TCOON,ioos:station:TCOON:031:1,2013-12-01T06:42:00Z,28.4073,-96.7122,0.0,1.2,44.0,1.5,'11111222,11111222,11111222' 
TCOON,ioos:station:TCOON:031:1,2013-12-01T06:48:00Z,28.4073,-96.7122,0.0,1.4,54.0,2.0,'11111222,11111222,11111222' 
TCOON,ioos:station:TCOON:031:1,2013-12-01T06:54:00Z,28.4073,-96.7122,0.0,1.1,60.0,1.7,'11111222,11111222,11111222' 
TCOON,ioos:station:TCOON:031:1,2013-12-01T07:00:00Z,28.4073,-96.7122,0.0,1.2,61.0,1.4,'11111222,11111222,11111222' 
TCOON,ioos:station:TCOON:031:1,2013-12-01T07:06:00Z,28.4073,-96.7122,0.0,0.6,62.0,1.3,'11111222,11111222,11111222' 
TCOON,ioos:station:TCOON:031:1,2013-12-01T07:12:00Z,28.4073,-96.7122,0.0,0.6,78.0,1.1,'11111222,11111222,11111222' 
TCOON,ioos:station:TCOON:031:1,2013-12-01T07:18:00Z,28.4073,-96.7122,0.0,0.2,70.0,0.5,'11111222,11111222,11111222' 
TCOON,ioos:station:TCOON:031:1,2013-12-01T07:24:00Z,28.4073,-96.7122,0.0,0.5,69.0,0.7,'11111222,11111222,11111222' 
TCOON,ioos:station:TCOON:031:1,2013-12-01T07:30:00Z,28.4073,-96.7122,0.0,0.6,67.0,1.1,'11111222,11111222,11111222' 
TCOON,ioos:station:TCOON:031:1,2013-12-01T07:36:00Z,28.4073,-96.7122,0.0,0.6,60.0,0.8,'11111222,11111222,11111222' 
TCOON,ioos:station:TCOON:031:1,2013-12-01T07:42:00Z,28.4073,-96.7122,0.0,1.3,65.0,1.5,'11111222,11111222,11111222' 
TCOON,ioos:station:TCOON:031:1,2013-12-01T07:48:00Z,28.4073,-96.7122,0.0,1.2,68.0,1.6,'11111222,11111222,11111222' 
TCOON,ioos:station:TCOON:031:1,2013-12-01T07:54:00Z,28.4073,-96.7122,0.0,1.4,65.0,1.6,'11111222,11111222,11111222' 
TCOON,ioos:station:TCOON:031:1,2013-12-01T08:00:00Z,28.4073,-96.7122,0.0,1.5,71.0,1.7,'11111222,11111222,11111222' 
TCOON,ioos:station:TCOON:031:1,2013-12-01T08:06:00Z,28.4073,-96.7122,0.0,1.6,73.0,2.0,'11111222,11111222,11111222' 
TCOON,ioos:station:TCOON:031:1,2013-12-01T08:12:00Z,28.4073,-96.7122,0.0,1.6,67.0,1.8,'11111222,11111222,11111222' 
TCOON,ioos:station:TCOON:031:1,2013-12-01T08:18:00Z,28.4073,-96.7122,0.0,2.1,58.0,2.5,'11111222,11111222,11111222' 
TCOON,ioos:station:TCOON:031:1,2013-12-01T08:24:00Z,28.4073,-96.7122,0.0,1.8,56.0,2.5,'11111222,11111222,11111222' 
TCOON,ioos:station:TCOON:031:1,2013-12-01T08:30:00Z,28.4073,-96.7122,0.0,1.5,51.0,2.2,'11111222,11111222,11111222' 
TCOON,ioos:station:TCOON:031:1,2013-12-01T08:36:00Z,28.4073,-96.7122,0.0,1.5,41.0,1.8,'11111222,11111222,11111222' 
TCOON,ioos:station:TCOON:031:1,2013-12-01T08:42:00Z,28.4073,-96.7122,0.0,1.6,49.0,1.9,'11111222,11111222,11111222' 
TCOON,ioos:station:TCOON:031:1,2013-12-01T08:48:00Z,28.4073,-96.7122,0.0,1.4,47.0,1.8,'11111222,11111222,11111222' 
TCOON,ioos:station:TCOON:031:1,2013-12-01T08:54:00Z,28.4073,-96.7122,0.0,1.5,33.0,1.8,'11111222,11111222,11111222' 
TCOON,ioos:station:TCOON:031:1,2013-12-01T09:00:00Z,28.4073,-96.7122,0.0,1.7,23.0,2.0,'11111222,11111222,11111222' 
TCOON,ioos:station:TCOON:031:1,2013-12-01T09:06:00Z,28.4073,-96.7122,0.0,1.7,14.0,1.8,'11111222,11111222,11111222' 
TCOON,ioos:station:TCOON:031:1,2013-12-01T09:12:00Z,28.4073,-96.7122,0.0,2.3,8.0,2.4,'11111222,11111222,11111222' 
TCOON,ioos:station:TCOON:031:1,2013-12-01T09:18:00Z,28.4073,-96.7122,0.0,2.2,3.0,2.7,'11111222,11111222,11111222' 
TCOON,ioos:station:TCOON:031:1,2013-12-01T09:24:00Z,28.4073,-96.7122,0.0,2.2,6.0,2.5,'11111222,11111222,11111222' 
TCOON,ioos:station:TCOON:031:1,2013-12-01T09:30:00Z,28.4073,-96.7122,0.0,2.2,4.0,2.6,'11111222,11111222,11111222' 
TCOON,ioos:station:TCOON:031:1,2013-12-01T09:36:00Z,28.4073,-96.7122,0.0,2.4,4.0,2.6,'11111222,11111222,11111222' 
TCOON,ioos:station:TCOON:031:1,2013-12-01T09:42:00Z,28.4073,-96.7122,0.0,2.1,8.0,2.6,'11111222,11111222,11111222' 
TCOON,ioos:station:TCOON:031:1,2013-12-01T09:48:00Z,28.4073,-96.7122,0.0,2.0,7.0,2.8,'11111222,11111222,11111222' 
TCOON,ioos:station:TCOON:031:1,2013-12-01T09:54:00Z,28.4073,-96.7122,0.0,1.9,5.0,2.1,'11111222,11111222,11111222' 
TCOON,ioos:station:TCOON:031:1,2013-12-01T10:00:00Z,28.4073,-96.7122,0.0,2.1,7.0,2.4,'11111222,11111222,11111222' 
TCOON,ioos:station:TCOON:031:1,2013-12-01T10:06:00Z,28.4073,-96.7122,0.0,2.2,16.0,2.6,'11111222,11111222,11111222' 
TCOON,ioos:station:TCOON:031:1,2013-12-01T10:12:00Z,28.4073,-96.7122,0.0,2.3,18.0,2.9,'11111222,11111222,11111222' 
TCOON,ioos:station:TCOON:031:1,2013-12-01T10:18:00Z,28.4073,-96.7122,0.0,2.1,25.0,2.5,'11111222,11111222,11111222' 
TCOON,ioos:station:TCOON:031:1,2013-12-01T10:24:00Z,28.4073,-96.7122,0.0,2.1,24.0,2.4,'11111222,11111222,11111222' 
TCOON,ioos:station:TCOON:031:1,2013-12-01T10:30:00Z,28.4073,-96.7122,0.0,2.0,23.0,2.5,'11111222,11111222,11111222' 
TCOON,ioos:station:TCOON:031:1,2013-12-01T10:36:00Z,28.4073,-96.7122,0.0,1.8,24.0,2.4,'11111222,11111222,11111222' 
TCOON,ioos:station:TCOON:031:1,2013-12-01T10:42:00Z,28.4073,-96.7122,0.0,2.2,31.0,2.6,'11111222,11111222,11111222' 
TCOON,ioos:station:TCOON:031:1,2013-12-01T10:48:00Z,28.4073,-96.7122,0.0,1.9,28.0,2.2,'11111222,11111222,11111222' 
TCOON,ioos:station:TCOON:031:1,2013-12-01T10:54:00Z,28.4073,-96.7122,0.0,1.8,35.0,2.3,'11111222,11111222,11111222' 
TCOON,ioos:station:TCOON:031:1,2013-12-01T11:00:00Z,28.4073,-96.7122,0.0,2.1,53.0,2.6,'11111222,11111222,11111222' 
TCOON,ioos:station:TCOON:031:1,2013-12-01T11:06:00Z,28.4073,-96.7122,0.0,2.2,54.0,3.0,'11111222,11111222,11111222' 
TCOON,ioos:station:TCOON:031:1,2013-12-01T11:12:00Z,28.4073,-96.7122,0.0,2.2,57.0,2.6,'11111222,11111222,11111222' 
TCOON,ioos:station:TCOON:031:1,2013-12-01T11:18:00Z,28.4073,-96.7122,0.0,1.7,48.0,2.3,'11111222,11111222,11111222' 
TCOON,ioos:station:TCOON:031:1,2013-12-01T11:24:00Z,28.4073,-96.7122,0.0,1.7,58.0,2.1,'11111222,11111222,11111222' 
TCOON,ioos:station:TCOON:031:1,2013-12-01T11:30:00Z,28.4073,-96.7122,0.0,2.2,60.0,2.7,'11111222,11111222,11111222' 
TCOON,ioos:station:TCOON:031:1,2013-12-01T11:36:00Z,28.4073,-96.7122,0.0,1.8,54.0,2.2,'11111222,11111222,11111222' 
TCOON,ioos:station:TCOON:031:1,2013-12-01T11:42:00Z,28.4073,-96.7122,0.0,2.0,57.0,2.5,'11111222,11111222,11111222' 
TCOON,ioos:station:TCOON:031:1,2013-12-01T11:48:00Z,28.4073,-96.7122,0.0,2.0,53.0,2.7,'11111222,11111222,11111222' 
TCOON,ioos:station:TCOON:031:1,2013-12-01T11:54:00Z,28.4073,-96.7122,0.0,2.3,61.0,2.6,'11111222,11111222,11111222' 
TCOON,ioos:station:TCOON:031:1,2013-12-01T12:00:00Z,28.4073,-96.7122,0.0,2.4,65.0,2.8,'11111222,11111222,11111222' 
TCOON,ioos:station:TCOON:031:1,2013-12-01T12:06:00Z,28.4073,-96.7122,0.0,2.3,64.0,2.8,'11111222,11111222,11111222' 
TCOON,ioos:station:TCOON:031:1,2013-12-01T12:12:00Z,28.4073,-96.7122,0.0,2.0,57.0,2.7,'11111222,11111222,11111222' 
TCOON,ioos:station:TCOON:031:1,2013-12-01T12:18:00Z,28.4073,-96.7122,0.0,1.7,46.0,2.3,'11111222,11111222,11111222' 
TCOON,ioos:station:TCOON:031:1,2013-12-01T12:24:00Z,28.4073,-96.7122,0.0,2.0,47.0,2.2,'11111222,11111222,11111222' 
TCOON,ioos:station:TCOON:031:1,2013-12-01T12:30:00Z,28.4073,-96.7122,0.0,1.7,32.0,2.2,'11111222,11111222,11111222' 
TCOON,ioos:station:TCOON:031:1,2013-12-01T12:36:00Z,28.4073,-96.7122,0.0,1.8,44.0,2.1,'11111222,11111222,11111222' 
TCOON,ioos:station:TCOON:031:1,2013-12-01T12:42:00Z,28.4073,-96.7122,0.0,1.8,49.0,2.2,'11111222,11111222,11111222' 
TCOON,ioos:station:TCOON:031:1,2013-12-01T12:48:00Z,28.4073,-96.7122,0.0,1.6,46.0,2.1,'11111222,11111222,11111222' 
TCOON,ioos:station:TCOON:031:1,2013-12-01T12:54:00Z,28.4073,-96.7122,0.0,1.7,53.0,1.9,'11111222,11111222,11111222' 
TCOON,ioos:station:TCOON:031:1,2013-12-01T13:00:00Z,28.4073,-96.7122,0.0,2.0,62.0,2.3,'11111222,11111222,11111222' 
TCOON,ioos:station:TCOON:031:1,2013-12-01T13:06:00Z,28.4073,-96.7122,0.0,2.2,62.0,2.5,'11111222,11111222,11111222' 
TCOON,ioos:station:TCOON:031:1,2013-12-01T13:12:00Z,28.4073,-96.7122,0.0,2.2,67.0,2.4,'11111222,11111222,11111222' 
TCOON,ioos:station:TCOON:031:1,2013-12-01T13:18:00Z,28.4073,-96.7122,0.0,2.3,64.0,2.7,'11111222,11111222,11111222' 
TCOON,ioos:station:TCOON:031:1,2013-12-01T13:24:00Z,28.4073,-96.7122,0.0,2.1,59.0,2.5,'11111222,11111222,11111222' 
TCOON,ioos:station:TCOON:031:1,2013-12-01T13:30:00Z,28.4073,-96.7122,0.0,1.9,58.0,2.3,'11111222,11111222,11111222' 
TCOON,ioos:station:TCOON:031:1,2013-12-01T13:36:00Z,28.4073,-96.7122,0.0,1.7,58.0,2.1,'11111222,11111222,11111222' 
TCOON,ioos:station:TCOON:031:1,2013-12-01T13:42:00Z,28.4073,-96.7122,0.0,1.9,60.0,2.2,'11111222,11111222,11111222' 
TCOON,ioos:station:TCOON:031:1,2013-12-01T13:48:00Z,28.4073,-96.7122,0.0,1.5,49.0,2.2,'11111222,11111222,11111222' 
TCOON,ioos:station:TCOON:031:1,2013-12-01T13:54:00Z,28.4073,-96.7122,0.0,1.3,48.0,1.7,'11111222,11111222,11111222' 
TCOON,ioos:station:TCOON:031:1,2013-12-01T14:00:00Z,28.4073,-96.7122,0.0,0.5,6.0,1.1,'11111222,11111222,11111222' 
TCOON,ioos:station:TCOON:031:1,2013-12-01T14:06:00Z,28.4073,-96.7122,0.0,0.2,39.0,0.4,'11111222,11111222,11111222' 
TCOON,ioos:station:TCOON:031:1,2013-12-01T14:12:00Z,28.4073,-96.7122,0.0,0.6,63.0,1.0,'11111222,11111222,11111222' 
TCOON,ioos:station:TCOON:031:1,2013-12-01T14:18:00Z,28.4073,-96.7122,0.0,0.7,69.0,1.2,'11111222,11111222,11111222' 
TCOON,ioos:station:TCOON:031:1,2013-12-01T14:24:00Z,28.4073,-96.7122,0.0,0.7,73.0,0.9,'11111222,11111222,11111222' 
TCOON,ioos:station:TCOON:031:1,2013-12-01T14:30:00Z,28.4073,-96.7122,0.0,0.1,74.0,0.9,'11111222,11111222,11111222' 
TCOON,ioos:station:TCOON:031:1,2013-12-01T14:36:00Z,28.4073,-96.7122,0.0,0.1,244.0,1.3,'11111222,11111222,11111222' 
TCOON,ioos:station:TCOON:031:1,2013-12-01T14:42:00Z,28.4073,-96.7122,0.0,0.2,245.0,1.4,'11111222,11111222,11111222' 
TCOON,ioos:station:TCOON:031:1,2013-12-01T14:48:00Z,28.4073,-96.7122,0.0,0.5,231.0,0.6,'11111222,11111222,11111222' 
TCOON,ioos:station:TCOON:031:1,2013-12-01T14:54:00Z,28.4073,-96.7122,0.0,0.8,247.0,1.0,'11111222,11111222,11111222' 
TCOON,ioos:station:TCOON:031:1,2013-12-01T15:00:00Z,28.4073,-96.7122,0.0,0.0,263.0,0.6,'11111222,11111222,11111222' 
TCOON,ioos:station:TCOON:031:1,2013-12-01T15:06:00Z,28.4073,-96.7122,0.0,0.0,263.0,0.0,'11111222,11111222,11111222' 
TCOON,ioos:station:TCOON:031:1,2013-12-01T15:12:00Z,28.4073,-96.7122,0.0,0.5,93.0,0.7,'11111222,11111222,11111222' 
TCOON,ioos:station:TCOON:031:1,2013-12-01T15:18:00Z,28.4073,-96.7122,0.0,0.9,109.0,1.0,'11111222,11111222,11111222' 
TCOON,ioos:station:TCOON:031:1,2013-12-01T15:24:00Z,28.4073,-96.7122,0.0,0.8,122.0,0.9,'11111222,11111222,11111222' 
TCOON,ioos:station:TCOON:031:1,2013-12-01T15:30:00Z,28.4073,-96.7122,0.0,0.7,159.0,0.8,'11111222,11111222,11111222' 
TCOON,ioos:station:TCOON:031:1,2013-12-01T15:36:00Z,28.4073,-96.7122,0.0,1.0,226.0,1.6,'11111222,11111222,11111222' 
TCOON,ioos:station:TCOON:031:1,2013-12-01T15:42:00Z,28.4073,-96.7122,0.0,0.8,236.0,2.1,'11111222,11111222,11111222' 
TCOON,ioos:station:TCOON:031:1,2013-12-01T15:48:00Z,28.4073,-96.7122,0.0,0.2,164.0,0.6,'11111222,11111222,11111222' 
TCOON,ioos:station:TCOON:031:1,2013-12-01T15:54:00Z,28.4073,-96.7122,0.0,0.0,171.0,0.2,'11111222,11111222,11111222' 
TCOON,ioos:station:TCOON:031:1,2013-12-01T16:00:00Z,28.4073,-96.7122,0.0,0.1,181.0,0.2,'11111222,11111222,11111222' 
TCOON,ioos:station:TCOON:031:1,2013-12-01T16:06:00Z,28.4073,-96.7122,0.0,0.5,185.0,0.6,'11111222,11111222,11111222' 
TCOON,ioos:station:TCOON:031:1,2013-12-01T16:12:00Z,28.4073,-96.7122,0.0,0.3,185.0,0.6,'11111222,11111222,11111222' 
TCOON,ioos:station:TCOON:031:1,2013-12-01T16:18:00Z,28.4073,-96.7122,0.0,0.4,185.0,0.6,'11111222,11111222,11111222' 
TCOON,ioos:station:TCOON:031:1,2013-12-01T16:24:00Z,28.4073,-96.7122,0.0,0.2,159.0,0.6,'11111222,11111222,11111222' 
TCOON,ioos:station:TCOON:031:1,2013-12-01T16:30:00Z,28.4073,-96.7122,0.0,0.7,158.0,0.8,'11111222,11111222,11111222' 
TCOON,ioos:station:TCOON:031:1,2013-12-01T16:36:00Z,28.4073,-96.7122,0.0,0.7,145.0,0.8,'11111222,11111222,11111222' 
TCOON,ioos:station:TCOON:031:1,2013-12-01T16:42:00Z,28.4073,-96.7122,0.0,0.5,151.0,0.7,'11111222,11111222,11111222' 
TCOON,ioos:station:TCOON:031:1,2013-12-01T16:48:00Z,28.4073,-96.7122,0.0,0.3,168.0,0.7,'11111222,11111222,11111222' 
TCOON,ioos:station:TCOON:031:1,2013-12-01T16:54:00Z,28.4073,-96.7122,0.0,0.3,168.0,0.5,'11111222,11111222,11111222' 
TCOON,ioos:station:TCOON:031:1,2013-12-01T17:00:00Z,28.4073,-96.7122,0.0,0.5,169.0,0.6,'11111222,11111222,11111222' 
TCOON,ioos:station:TCOON:031:1,2013-12-01T17:06:00Z,28.4073,-96.7122,0.0,0.7,168.0,0.7,'11111222,11111222,11111222' 
TCOON,ioos:station:TCOON:031:1,2013-12-01T17:12:00Z,28.4073,-96.7122,0.0,1.0,152.0,1.1,'11111222,11111222,11111222' 
TCOON,ioos:station:TCOON:031:1,2013-12-01T17:18:00Z,28.4073,-96.7122,0.0,1.5,156.0,1.7,'11111222,11111222,11111222' 
TCOON,ioos:station:TCOON:031:1,2013-12-01T17:24:00Z,28.4073,-96.7122,0.0,2.2,155.0,2.3,'11111222,11111222,11111222' 
TCOON,ioos:station:TCOON:031:1,2013-12-01T17:30:00Z,28.4073,-96.7122,0.0,2.4,158.0,2.6,'11111222,11111222,11111222' 
TCOON,ioos:station:TCOON:031:1,2013-12-01T17:36:00Z,28.4073,-96.7122,0.0,2.6,159.0,2.9,'11111222,11111222,11111222' 
TCOON,ioos:station:TCOON:031:1,2013-12-01T17:42:00Z,28.4073,-96.7122,0.0,2.5,158.0,2.7,'11111222,11111222,11111222' 
TCOON,ioos:station:TCOON:031:1,2013-12-01T17:48:00Z,28.4073,-96.7122,0.0,2.6,159.0,2.8,'11111222,11111222,11111222' 
TCOON,ioos:station:TCOON:031:1,2013-12-01T17:54:00Z,28.4073,-96.7122,0.0,2.6,158.0,2.7,'11111222,11111222,11111222' 
TCOON,ioos:station:TCOON:031:1,2013-12-01T18:00:00Z,28.4073,-96.7122,0.0,2.7,161.0,2.9,'11111222,11111222,11111222' 
TCOON,ioos:station:TCOON:031:1,2013-12-01T18:06:00Z,28.4073,-96.7122,0.0,2.9,158.0,3.2,'11111222,11111222,11111222' 
TCOON,ioos:station:TCOON:031:1,2013-12-01T18:12:00Z,28.4073,-96.7122,0.0,3.1,157.0,3.2,'11111222,11111222,11111222' 
TCOON,ioos:station:TCOON:031:1,2013-12-01T18:18:00Z,28.4073,-96.7122,0.0,3.5,157.0,3.5,'11111222,11111222,11111222' 
TCOON,ioos:station:TCOON:031:1,2013-12-01T18:24:00Z,28.4073,-96.7122,0.0,3.5,155.0,3.6,'11111222,11111222,11111222' 
TCOON,ioos:station:TCOON:031:1,2013-12-01T18:30:00Z,28.4073,-96.7122,0.0,3.4,159.0,3.6,'11111222,11111222,11111222' 
TCOON,ioos:station:TCOON:031:1,2013-12-01T18:36:00Z,28.4073,-96.7122,0.0,3.1,159.0,3.4,'11111222,11111222,11111222' 
TCOON,ioos:station:TCOON:031:1,2013-12-01T18:42:00Z,28.4073,-96.7122,0.0,2.9,161.0,3.3,'11111222,11111222,11111222' 
TCOON,ioos:station:TCOON:031:1,2013-12-01T18:48:00Z,28.4073,-96.7122,0.0,2.8,162.0,3.0,'11111222,11111222,11111222' 
TCOON,ioos:station:TCOON:031:1,2013-12-01T18:54:00Z,28.4073,-96.7122,0.0,3.0,161.0,3.1,'11111222,11111222,11111222' 
TCOON,ioos:station:TCOON:031:1,2013-12-01T19:00:00Z,28.4073,-96.7122,0.0,2.9,159.0,3.2,'11111222,11111222,11111222' 
TCOON,ioos:station:TCOON:031:1,2013-12-01T19:06:00Z,28.4073,-96.7122,0.0,3.5,153.0,3.7,'11111222,11111222,11111222' 
TCOON,ioos:station:TCOON:031:1,2013-12-01T19:12:00Z,28.4073,-96.7122,0.0,3.9,148.0,4.1,'11111222,11111222,11111222' 
TCOON,ioos:station:TCOON:031:1,2013-12-01T19:18:00Z,28.4073,-96.7122,0.0,3.9,151.0,4.2,'11111222,11111222,11111222' 
TCOON,ioos:station:TCOON:031:1,2013-12-01T19:24:00Z,28.4073,-96.7122,0.0,4.3,153.0,4.5,'11111222,11111222,11111222' 
TCOON,ioos:station:TCOON:031:1,2013-12-01T19:30:00Z,28.4073,-96.7122,0.0,4.4,153.0,4.6,'11111222,11111222,11111222' 
TCOON,ioos:station:TCOON:031:1,2013-12-01T19:36:00Z,28.4073,-96.7122,0.0,4.1,151.0,4.5,'11111222,11111222,11111222' 
TCOON,ioos:station:TCOON:031:1,2013-12-01T19:42:00Z,28.4073,-96.7122,0.0,4.2,152.0,4.4,'11111222,11111222,11111222' 
TCOON,ioos:station:TCOON:031:1,2013-12-01T19:48:00Z,28.4073,-96.7122,0.0,4.1,158.0,4.4,'11111222,11111222,11111222' 
TCOON,ioos:station:TCOON:031:1,2013-12-01T19:54:00Z,28.4073,-96.7122,0.0,4.1,153.0,4.2,'11111222,11111222,11111222' 
TCOON,ioos:station:TCOON:031:1,2013-12-01T20:00:00Z,28.4073,-96.7122,0.0,4.3,156.0,4.4,'11111222,11111222,11111222' 
TCOON,ioos:station:TCOON:031:1,2013-12-01T20:06:00Z,28.4073,-96.7122,0.0,4.5,157.0,4.7,'11111222,11111222,11111222' 
TCOON,ioos:station:TCOON:031:1,2013-12-01T20:12:00Z,28.4073,-96.7122,0.0,4.4,153.0,4.7,'11111222,11111222,11111222' 
TCOON,ioos:station:TCOON:031:1,2013-12-01T20:18:00Z,28.4073,-96.7122,0.0,4.5,151.0,4.7,'11111222,11111222,11111222' 
TCOON,ioos:station:TCOON:031:1,2013-12-01T20:24:00Z,28.4073,-96.7122,0.0,4.9,151.0,5.0,'11111222,11111222,11111222' 